Simultaneous Nadir Overpasses (SNOs) Predictions

Prediction of SNOs between NOAA-19 and METOP-C Satellite Orbit:

Table of predicted SNOs for the next 14.0 days since TLE Epoch: 5/25/2024
Index Date (NOAA-19) Time (NOAA-19) Lat,Lon (NOAA-19) SZA (NOAA-19 ) Date (METOP-C) Time (METOP-C) Lat,Lon (METOP-C) SZA (METOP-C ) Distance(km) Time Diff (sec)
1 06/02/2024 03:08:52 -79.71, -27.77 121.92 06/02/2024 03:09:58 -79.71, -27.76 121.90 0.25 66
2 06/02/2024 03:59:44 79.76, 140.05 58.17 06/02/2024 04:00:37 79.77, 140.06 58.19 0.46 53
3 06/02/2024 04:50:46 -79.82, -52.09 121.74 06/02/2024 04:51:16 -79.82, -52.06 121.73 0.51 30
4 06/02/2024 05:41:39 79.85, 115.45 58.30 06/02/2024 05:41:56 79.85, 115.48 58.30 0.67 17
5 06/02/2024 06:32:41 -79.90, -76.68 121.62 06/02/2024 06:32:35 -79.90, -76.64 121.61 0.77 6
6 06/02/2024 07:23:33 79.95, 91.16 58.47 06/02/2024 07:23:14 79.96, 91.20 58.47 0.93 19
7 06/02/2024 08:14:35 -80.00,-100.96 121.44 06/02/2024 08:13:53 -80.01,-100.91 121.45 1.01 42



Historial Predications of SNOs between NOAA-19 and METOP-C
